Wolf Creek, OR

8:52 PM PST on February 22, 2017 (GMT -0800)
Sexton Summit

Weather History for KSXT - October, 2013

Change the Weather History Date:

Tuesday, October 22, 2013

  Actual Average Record
Temperature  
Mean Temperature 64 °F -  
Max Temperature 71 °F 52 °F 72 °F (1999)
Min Temperature 57 °F 39 °F 28 °F (2012)
Degree Days  
Heating Degree Days 2    
Growing Degree Days 14 (Base 50)    
Moisture  
Dew Point 33 °F    
Average Humidity 34    
Maximum Humidity 50    
Minimum Humidity 22    
Precipitation  
Precipitation 0.00 in - - ()
Sea Level Pressure  
Sea Level Pressure 29.96 in    
Wind  
Wind Speed 9 mph (ESE)    
Max Wind Speed 13 mph    
Max Gust Speed 20 mph    
Visibility 10 miles    
Events      
Averages and records for this station are not official NWS values.
T = Trace of Precipitation, MM = Missing Value Source: NWS Daily Summary

Daily Weather History Graph

Daily Weather History Graph

Search for Another Location

Airport or City:

Trip Planner

Search our weather history database for the weather conditions in past years. The results will help you decide how hot, cold, wet, or windy it might be!

Date:

Astronomy

Oct. 22, 2013 Rise Set
Actual Time 7:35 AM PDT 6:19 PM PDT
Civil Twilight 7:06 AM PDT 6:48 PM PDT
Nautical Twilight 6:33 AM PDT 7:21 PM PDT
Astronomical Twilight 6:01 AM PDT 7:53 PM PDT
Moon 9:01 PM PDT (10/22) 11:11 AM PDT (10/22)
Length of Visible Light 11h 41m
Length of Day
10h 44m
Waning Gibbous, 86% of the Moon is Illuminated
Oct 22
Waning Gibbous
Oct 26
Last Quarter
Nov 3
New
Nov 9
First Quarter
Nov 17
Full

Hourly Weather History & Observations

Time (PDT) Temp. Dew Point Humidity Pressure Visibility Wind Dir Wind Speed Gust Speed Precip Events Conditions
12:56 AM 61.0 °F 35.1 °F 38% 29.96 in 10.0 mi ESE 11.5 mph - N/A   Clear
1:56 AM 60.1 °F 34.0 °F 38% 29.96 in 10.0 mi ESE 10.4 mph - N/A   Clear
2:56 AM 61.0 °F 30.9 °F 32% 29.95 in 10.0 mi ESE 11.5 mph - N/A   Clear
3:56 AM 60.1 °F 32.0 °F 35% 29.95 in 10.0 mi ESE 11.5 mph - N/A   Clear
4:56 AM 59.0 °F 32.0 °F 36% 29.96 in 10.0 mi ESE 11.5 mph - N/A   Clear
5:56 AM 57.9 °F 32.0 °F 37% 29.98 in 10.0 mi ESE 12.7 mph - N/A   Clear
6:56 AM 57.9 °F 30.9 °F 36% 29.98 in 10.0 mi SE 11.5 mph 19.6 mph N/A   Clear
7:56 AM 59.0 °F 30.9 °F 35% 29.98 in 10.0 mi SE 11.5 mph - N/A   Clear
8:56 AM 62.1 °F 33.1 °F 34% 29.98 in 10.0 mi ESE 10.4 mph - N/A   Clear
9:56 AM 63.0 °F 32.0 °F 31% 29.98 in 10.0 mi ESE 12.7 mph - N/A   Clear
10:56 AM 64.9 °F 33.1 °F 31% 29.98 in 10.0 mi ESE 12.7 mph - N/A   Clear
11:56 AM 68.0 °F 34.0 °F 28% 29.97 in 10.0 mi SE 9.2 mph - N/A   Clear
12:56 PM 69.1 °F 33.1 °F 26% 29.96 in 10.0 mi SE 8.1 mph - N/A   Clear
1:56 PM 70.0 °F 33.1 °F 26% 29.95 in 10.0 mi SE 5.8 mph - N/A   Clear
2:56 PM 70.0 °F 32.0 °F 25% 29.94 in 10.0 mi SE 4.6 mph - N/A   Clear
3:56 PM 69.1 °F 28.9 °F 22% 29.95 in 10.0 mi Calm Calm - N/A   Clear
4:56 PM 68.0 °F 28.0 °F 22% 29.94 in 10.0 mi Calm Calm - N/A   Clear
5:56 PM 66.0 °F 30.0 °F 26% 29.95 in 10.0 mi NNW 3.5 mph - N/A   Clear
6:56 PM 64.0 °F 28.0 °F 26% 29.96 in 10.0 mi NW 5.8 mph - N/A   Clear
7:56 PM 62.1 °F 37.9 °F 41% 29.96 in 10.0 mi NW 8.1 mph - N/A   Clear
8:56 PM 61.0 °F 37.9 °F 42% 29.96 in 10.0 mi NNW 5.8 mph - N/A   Clear
9:56 PM 61.0 °F 42.1 °F 50% 29.96 in 10.0 mi NNE 6.9 mph - N/A   Clear
10:56 PM 62.1 °F 39.9 °F 44% 29.95 in 10.0 mi North 5.8 mph - N/A   Clear
11:56 PM 61.0 °F 42.1 °F 50% 29.94 in 10.0 mi Calm Calm - N/A   Clear